Location: Isle of Man Observatory
(54.1776°N, 4.6264°W)
Time: 14:11:38
(UTC+02:00)

ARIANE 6 FM1 Upper Stage - Pass Details

Date: 24 April 2026
Orbit: 526 x 601 km, 62.0° (Epoch: 19 May)

Event Time Altitude Azimuth Distance (km) Brightness Sun altitude
Rises 23:29:54 0° 304° (NW) 2,691 7.8 -14.0°
Reaches altitude 10° 23:32:13 10° 312° (NW) 1,790 6.6 -14.2°
Maximum altitude 23:36:02 40° 23° (NNE) 788 3.6 -14.6°
Enters shadow 23:39:00 15° 90° (E) 1,480 4.4 -14.9°
